SCP
0 0 0 0 0 0 0 0 0 0 0 0 0 0 0 0 0 0 -0 0 -0 0 0 -0 -0 -0 -1 -0 -0 -0 0 0 0 0 0 0 0 0 0 0 0 0 0 -0 0 -0 -0 -0 -0
0 0 0 0 0 0 0 0 0 0 0 0 0 0 0 0 0 0 0 0 0 0 0 0 0 -0 -0 -0 -0 -0 0 0 0 0 0 0 0 0 0 0 0 0 -0 0 0 0 0 0 0
0 0 0 0 0 0 0 0 0 0 0 0 0 0 0 0 0 0 -0 0 0 0 0 0 0 0 -0 -0 -0 0 0 0 0 0 0 0 0 0 0 0 0 -0 -0 -0 0 0 0 0 0
0 0 0 0 0 0 -0 0 0 0 0 0 0 0 0 0 0 0 -0 0 0 0 0 0 0 0 0 0 -0 -0 0 0 0 0 0 0 0 0 0 0 -0 -0 0 0 0 0 0 0 0
0 0 0 0 0 0 0 0 0 0 0 0 0 0 0 0 0 0 -0 0 0 0 1 1 0 0 0 0 0 0 -0 -0 0 0 0 0 0 0 0 0 0 -0 -0 0 0 0 0 0 0
0 0 0 0 0 0 0 0 0 0 0 0 0 0 0 0 0 0 -0 -0 0 0 1 1 1 1 0 0 0 0 -0 -0 -0 -0 0 0 0 0 0 0 0 -0 0 0 0 0 0 0 0
0 0 0 0 0 0 0 0 0 0 0 0 0 0 0 0 0 0 0 -0 0 1 1 1 2 1 1 0 0 0 0 -0 -0 -0 -0 -0 -0 -0 -0 0 0 0 0 0 0 0 0 0 0
0 0 0 0 0 0 0 0 0 0 0 0 0 0 -0 -0 0 0 0 0 1 2 1 1 2 2 2 1 1 0 0 0 -0 -0 -0 -0 -0 -0 -0 -0 -0 0 0 0 0 0 0 0 0
0 0 0 0 0 0 0 -0 0 0 0 0 0 0 0 0 0 0 0 0 -0 3 1 1 2 2 2 1 1 1 0 0 0 0 -0 -0 -0 -0 -0 -0 -0 0 0 0 0 0 0 0 0
0 0 0 0 0 0 0 0 -0 0 0 0 0 0 0 0 0 0 0 0 0 2 1 1 1 2 1 1 1 1 1 1 0 0 0 -0 -0 -0 -0 -0 0 0 0 0 0 0 0 0 0
0 0 0 0 0 0 0 0 0 0 0 0 0 0 0 0 0 0 0 0 0 0 0 0 1 1 1 1 1 2 1 1 0 0 0 0 -0 -0 -0 -0 0 0 0 0 0 0 0 0 0
0 0 0 0 0 0 0 0 0 0 0 0 0 0 0 0 0 0 0 0 0 0 0 0 0 1 0 2 1 1 1 1 0 0 0 0 0 0 -0 0 0 0 0 0 0 0 0 0 0
0 0 0 0 0 0 0 0 0 0 -0 0 0 0 0 0 0 0 0 0 0 0 0 1 1 0 0 2 1 0 0 0 0 0 0 0 0 0 0 0 0 0 0 0 0 0 0 0 0
0 0 0 0 0 0 0 0 0 -0 0 0 0 0 0 0 0 0 0 0 0 0 0 1 1 1 1 2 1 0 0 0 0 0 0 0 0 0 0 0 0 0 0 0 0 0 0 0 0
0 0 0 0 0 0 0 0 0 0 0 0 0 0 0 0 0 0 0 0 0 0 1 1 3 2 1 3 2 2 1 1 0 0 0 0 1 0 0 0 0 0 0 0 0 0 0 0 0
0 0 0 0 0 0 0 0 0 0 0 0 0 0 0 0 0 0 0 0 0 0 0 1 3 5 2 3 4 3 3 1 1 1 1 0 0 1 1 1 1 0 0 0 0 0 0 0 0
0 0 0 0 0 0 0 0 0 0 0 0 0 0 0 0 0 0 0 0 0 0 0 0 1 5 4 4 5 5 4 4 2 2 2 1 1 1 2 1 1 0 0 0 0 0 0 0 0
0 0 0 0 0 0 0 0 0 0 0 0 0 0 0 0 0 0 0 0 0 0 0 0 1 2 5 5 5 6 6 6 4 2 3 3 2 2 2 2 1 1 0 0 0 0 0 0 0
0 0 0 0 0 0 0 0 0 0 0 0 0 0 0 0 0 0 0 0 0 0 0 0 0 5 3 6 4 3 4 5 3 2 2 2 3 3 2 2 2 2 1 0 0 0 0 0 1
0 0 0 0 0 0 0 0 0 0 0 0 0 0 0 0 0 0 0 0 0 0 0 0 0 1 3 2 5 3 2 3 2 2 2 1 2 2 3 3 2 1 1 0 0 0 0 0 1
0 0 0 0 0 0 0 0 0 0 0 0 0 0 0 0 0 0 0 0 0 0 0 0 0 0 0 1 2 2 2 2 2 2 3 3 1 1 2 3 3 2 1 1 1 1 0 0 1
0 0 0 0 0 0 0 0 0 0 0 0 0 0 0 0 0 0 0 0 0 0 0 0 0 0 0 0 1 3 1 1 1 2 1 2 1 2 1 1 3 3 2 1 1 1 0 1 1
0 0 0 0 0 0 0 0 0 0 0 0 0 0 0 0 0 0 0 0 0 0 0 0 0 0 0 0 0 0 1 2 3 3 1 2 2 0 1 1 3 2 1 1 1 0 0 1 1
0 0 0 0 0 0 0 0 0 0 0 0 0 0 0 0 0 0 0 0 0 0 0 0 0 0 0 0 0 0 0 1 1 1 1 2 3 2 1 1 0 1 2 1 1 1 1 1 1
0 0 0 0 0 0 0 0 0 -0 0 -0 0 0 0 0 0 0 0 0 0 0 0 0 0 0 0 0 0 0 0 0 0 1 1 1 0 1 1 1 1 2 1 1 0 0 -0 1 1
0 0 0 0 0 0 0 0 -0 0 0 0 0 0 0 0 0 0 0 0 0 0 0 0 0 0 0 0 0 0 0 0 0 0 0 0 0 1 1 0 0 0 0 2 1 -1 -1 -0 0
0 0 0 0 -0 0 0 0 0 0 0 0 0 0 0 0 0 0 0 0 0 0 0 0 0 0 0 0 0 0 0 0 0 0 0 0 0 0 0 1 0 0 0 1 0 -0 0 0 0
0 0 0 0 0 0 0 0 0 0 0 0 0 0 0 0 0 0 0 0 0 0 0 0 0 0 0 0 0 0 0 0 0 0 0 0 0 0 0 0 1 1 1 1 0 0 0 1 1
0 0 0 0 0 0 0 0 -0 0 0 0 0 0 0 0 0 0 0 0 0 0 0 0 0 0 0 0 0 0 0 0 0 0 0 0 0 0 0 0 0 0 1 2 1 1 1 2 2
0 0 0 0 0 0 0 0 0 0 0 0 0 0 0 0 0 0 0 0 0 0 0 0 0 0 0 0 0 0 0 0 0 0 0 0 0 0 0 0 0 0 1 2 3 3 3 3 3
Wind_Speed_500mb
21 26 17 19 5 4 9 21 13 32 16 18 25 30 49 46 16 15 17 11 18 32 41 51 50 52 55 52 46 41 38 38 39 43 45 44 41 37 33 32 29 27 25 24 23 22 21 21 20
21 24 13 8 4 1 12 35 9 13 21 22 18 17 41 26 44 41 19 15 13 14 32 48 53 53 56 58 51 47 43 42 43 46 46 43 40 36 32 31 29 27 23 21 20 20 20 19 19
23 19 11 3 7 12 10 17 10 28 34 39 20 16 26 24 33 18 15 6 4 7 20 46 54 57 56 61 61 52 51 48 46 45 45 42 38 35 32 30 28 25 22 19 17 17 16 16 16
18 9 11 2 19 26 26 23 17 10 30 15 25 18 49 35 28 25 13 7 9 13 13 43 53 60 62 64 64 56 54 51 48 46 45 42 38 35 31 28 25 23 19 17 14 13 12 11 11
20 12 4 7 17 23 32 29 37 5 21 32 17 10 39 38 33 30 19 11 20 23 15 43 54 60 64 68 68 61 52 50 47 44 43 41 38 33 30 27 24 21 17 14 10 8 7 5 4
10 9 6 10 17 31 38 45 4 6 17 32 22 19 31 28 28 28 12 13 29 33 26 45 55 60 64 66 69 68 58 50 46 44 42 39 36 33 29 26 22 18 14 10 6 4 2 2 0
13 6 11 19 27 34 33 52 11 14 25 13 20 13 17 25 21 21 28 12 19 52 37 43 57 61 64 64 67 66 61 54 48 44 41 37 35 34 30 26 20 16 11 7 4 5 6 8 8
35 8 23 24 28 37 47 39 28 20 13 49 37 2 5 18 14 16 34 8 10 49 44 35 59 66 67 64 62 62 59 53 50 46 43 40 35 31 28 23 19 15 10 8 8 10 12 13 14
43 17 25 31 35 32 62 26 32 35 24 34 46 50 13 17 12 8 25 44 8 53 43 25 58 65 70 70 65 61 58 54 50 47 44 40 37 33 27 23 19 16 13 13 13 14 18 20 20
20 18 34 20 26 30 52 45 29 17 20 32 36 38 33 9 11 6 11 28 36 25 47 30 42 63 70 69 69 67 64 59 53 49 46 42 38 32 27 23 21 18 18 19 18 18 22 25 27
39 33 24 37 51 63 57 59 59 22 14 27 35 55 52 19 21 18 23 9 23 8 27 42 38 48 68 69 66 67 66 62 56 51 46 43 39 34 31 28 26 23 23 23 25 24 25 25 21
28 45 49 53 64 62 36 56 46 38 30 47 65 52 46 26 16 13 21 19 10 16 9 38 41 32 65 67 57 60 64 62 58 54 49 47 43 39 36 32 25 22 17 12 21 21 20 21 16
23 25 57 62 63 66 63 45 39 50 29 53 46 34 32 27 16 19 19 27 22 10 16 21 50 44 52 68 52 38 52 60 58 55 52 50 48 45 40 33 25 23 21 16 16 16 15 16 17
27 35 34 51 53 58 21 34 40 55 34 28 38 57 49 46 22 13 29 27 33 20 6 20 49 40 50 56 44 42 36 36 56 57 56 53 52 49 46 40 33 31 27 25 23 23 23 26 26
39 19 20 27 25 17 22 23 41 40 39 54 32 24 40 46 46 35 19 33 30 32 36 32 45 48 44 55 36 37 43 36 30 48 52 54 53 53 49 47 42 37 35 33 30 32 30 32 36
17 16 13 15 17 32 13 39 33 48 42 58 43 38 44 36 58 37 20 40 41 35 43 34 41 58 50 49 60 41 42 45 34 31 37 42 47 44 50 51 47 39 39 44 46 47 45 44 46
10 18 20 24 28 29 24 47 27 40 46 36 44 26 46 43 38 31 32 45 53 52 42 36 31 52 56 53 49 60 52 52 42 38 41 43 44 45 44 47 50 47 46 42 41 44 43 43 39
18 17 18 31 37 29 45 47 37 47 50 40 11 11 6 16 27 22 37 48 48 47 44 41 39 46 60 48 45 54 64 67 63 56 52 59 49 48 50 51 49 53 55 51 45 48 42 38 39
35 34 36 31 22 23 29 13 16 14 24 19 31 25 26 30 23 27 40 49 45 40 43 35 37 47 57 67 52 41 62 68 67 72 61 70 59 55 57 60 52 53 56 60 53 55 53 52 44
27 32 17 22 21 29 25 20 11 10 11 16 26 43 49 43 39 37 34 39 33 30 30 31 32 40 58 60 71 69 52 44 70 80 82 72 62 55 62 65 60 59 61 62 61 58 62 69 55
16 15 11 20 31 34 25 22 9 6 16 43 57 46 63 62 59 57 46 36 33 28 28 26 25 34 41 53 60 63 57 62 60 50 66 67 65 41 66 72 66 57 68 67 67 68 66 71 65
16 16 24 29 20 12 10 13 11 9 16 25 58 64 45 56 58 66 72 52 43 32 24 30 25 33 36 42 53 67 78 48 65 83 58 64 70 62 65 65 68 60 64 63 67 69 68 68 79
20 13 8 16 28 11 24 6 10 10 29 36 33 68 52 22 23 51 61 42 25 23 20 17 29 28 28 40 46 45 46 50 47 57 69 62 87 92 84 83 73 76 73 71 63 79 70 84 83
20 6 11 11 5 9 22 11 33 22 30 39 14 46 45 43 40 36 33 31 28 24 26 26 27 23 26 30 37 40 43 43 45 51 54 64 63 84 78 80 88 83 74 68 75 73 86 98 90
32 7 3 7 2 18 4 11 29 32 37 49 33 48 49 40 50 53 45 35 21 23 23 27 27 20 15 17 24 28 34 37 39 41 57 58 64 72 80 84 77 91 92 83 86 81 115 110 94
21 7 10 13 8 14 7 12 15 24 47 30 48 61 48 53 53 44 38 28 31 32 31 28 17 18 17 21 22 27 30 33 34 37 42 48 44 47 59 62 69 76 93 107 86 94 113 99 91
5 12 39 8 11 8 9 13 17 17 37 13 26 40 41 55 57 52 50 50 37 35 40 35 33 33 38 30 29 29 26 31 31 34 41 43 42 42 37 35 45 55 43 38 39 117 132 104 94
18 3 3 3 6 9 9 11 7 3 15 12 17 17 27 24 18 37 44 34 35 31 40 36 33 30 26 28 32 30 38 39 31 32 40 44 46 50 52 54 51 38 44 53 68 94 88 72 75
5 3 7 8 9 9 3 8 6 9 7 12 20 34 18 29 22 22 24 25 19 12 35 39 38 36 34 33 31 33 33 31 34 41 42 46 45 45 52 56 58 63 63 58 65 74 76 78 73
7 10 7 7 14 4 8 14 14 5 7 12 19 49 42 49 30 29 50 50 47 35 28 29 25 21 19 15 21 34 38 44 54 50 48 49 51 53 50 54 63 65 61 58 66 67 72 78 74
Wind_Direction_500mb
327 332 323 315 51 105 239 254 246 294 300 24 50 75 74 56 80 109 110 94 118 151 152 154 155 150 148 147 146 146 144 141 138 134 137 140 138 136 134 128 122 112 106 105 103 99 94 89 88
321 334 342 278 137 283 258 247 349 305 12 21 43 72 75 75 78 74 73 93 110 117 157 159 157 154 151 147 149 148 146 143 140 139 139 139 138 135 132 126 117 113 112 106 103 100 94 92 90
312 321 307 180 216 214 244 215 42 340 19 357 16 16 79 105 66 79 39 62 135 158 177 166 159 156 155 151 150 151 148 147 147 145 142 140 139 135 132 127 123 120 116 112 105 97 91 84 81
310 327 246 139 262 267 263 305 333 19 344 353 347 82 78 97 85 86 86 289 183 199 200 175 164 159 158 156 154 156 154 154 153 150 146 145 143 139 135 131 129 125 122 116 109 101 92 82 78
282 257 258 234 250 265 275 273 297 40 337 334 6 46 84 72 81 83 99 297 241 220 208 186 170 164 163 160 160 161 162 161 160 156 153 151 148 146 144 142 138 133 129 125 121 117 109 100 82
280 226 252 258 259 260 273 270 232 90 327 318 7 77 68 67 64 62 34 170 247 225 202 190 175 170 167 167 167 167 169 169 168 164 161 158 157 156 156 154 150 144 142 141 143 164 174 201 232
217 246 242 259 264 272 270 280 204 187 209 258 10 35 76 55 63 50 42 349 280 220 195 189 181 175 173 174 175 174 174 174 172 170 168 168 168 168 167 165 162 161 163 164 199 248 267 279 287
236 245 253 253 259 264 275 278 207 189 246 249 257 229 100 76 7 57 38 33 160 200 182 196 187 180 178 178 182 182 182 180 178 176 176 176 179 181 177 178 177 184 193 212 245 270 279 282 286
245 241 248 246 255 269 277 285 210 204 219 258 258 243 136 119 60 37 26 25 47 193 182 196 193 188 183 182 182 189 190 188 187 186 184 186 188 189 190 193 199 204 223 242 256 274 284 286 289
223 244 241 247 261 264 275 281 271 243 199 230 249 224 243 173 141 221 353 355 41 216 185 193 191 197 190 188 186 189 194 195 196 194 194 193 197 199 198 211 220 229 241 253 266 279 288 294 300
238 243 249 255 248 257 265 274 283 221 202 217 220 239 238 245 177 184 225 319 11 77 208 196 194 202 199 194 192 192 197 200 202 201 202 203 205 205 213 219 231 238 251 264 272 279 289 296 302
241 246 242 250 260 266 267 283 287 290 203 206 245 236 244 244 171 176 205 226 293 330 250 217 199 191 203 204 197 203 201 205 207 209 206 210 212 216 219 227 231 240 261 280 283 278 292 280 290
256 257 256 259 253 257 268 272 280 284 290 220 190 220 239 237 219 226 218 231 236 295 250 239 206 190 197 210 202 209 215 213 214 216 215 215 218 222 228 234 242 247 250 263 287 289 300 293 290
279 272 262 266 261 259 254 273 275 274 293 284 182 197 213 256 238 235 240 242 242 221 249 222 204 202 187 193 201 209 212 223 223 219 223 222 226 227 229 236 243 250 252 262 276 294 291 295 303
298 304 300 284 288 270 291 298 267 277 288 281 264 212 209 219 243 234 246 237 232 219 223 204 204 199 187 192 188 207 204 213 219 227 224 228 232 234 235 236 238 245 253 260 267 267 274 282 289
307 300 282 291 279 275 227 265 268 269 260 262 266 263 262 248 234 229 246 233 226 211 205 213 195 199 198 204 206 202 213 209 212 233 233 233 234 239 238 238 243 241 242 239 245 251 258 267 275
276 260 269 272 237 245 208 245 244 242 263 268 272 266 253 230 202 213 234 227 222 217 213 219 202 203 200 203 211 216 205 200 205 207 233 243 241 241 245 247 250 251 249 247 249 250 253 257 262
266 261 250 251 264 251 236 238 228 225 234 237 276 207 179 185 202 201 227 217 221 222 221 229 220 215 218 213 224 220 213 204 203 207 210 227 233 236 244 251 253 254 253 252 251 258 263 268 271
246 260 271 275 294 324 315 214 172 232 244 219 214 226 228 238 234 227 225 209 209 217 228 237 228 212 222 222 211 213 218 212 211 214 210 216 228 241 245 254 253 254 253 250 249 258 259 259 274
278 282 288 310 320 312 299 283 228 224 248 263 244 220 223 224 222 211 185 192 193 201 216 226 225 224 220 226 226 232 220 222 227 226 219 224 227 238 249 257 257 255 260 253 253 251 258 260 262
291 276 298 291 298 294 298 293 230 252 288 279 273 258 235 215 208 199 192 188 185 191 211 223 229 231 226 227 235 231 229 232 232 226 225 230 243 238 260 257 258 261 254 250 256 263 262 267 268
291 290 305 328 283 257 322 273 275 277 260 254 249 248 231 214 211 205 207 181 166 171 190 238 260 242 238 229 223 230 232 233 243 237 243 237 263 267 253 258 262 265 268 261 270 271 264 260 262
271 285 343 330 318 343 301 330 283 274 279 275 273 234 230 143 193 199 180 176 184 186 197 228 251 263 243 236 232 226 236 232 233 237 251 259 250 262 269 268 267 267 268 271 272 271 274 263 263
235 241 360 331 299 295 269 259 285 262 264 278 255 165 150 136 136 153 160 174 177 179 207 238 251 256 246 239 239 247 245 247 238 242 252 253 248 247 256 264 267 260 260 269 275 284 278 268 263
20 333 334 308 293 247 156 324 260 314 282 252 232 159 155 161 144 144 145 151 173 178 197 219 224 259 243 264 258 251 251 253 254 242 243 239 242 244 245 254 258 256 255 256 266 258 274 270 260
307 313 274 231 218 274 328 251 248 305 318 47 156 153 161 160 164 174 190 187 181 189 202 190 185 218 242 266 266 275 267 259 263 261 256 252 249 247 254 250 253 258 258 255 264 266 271 269 267
162 229 234 354 301 315 229 245 276 349 338 59 93 110 128 156 165 177 184 172 181 196 203 213 221 238 248 250 259 268 273 275 275 266 264 266 260 253 247 256 255 248 246 261 246 232 249 260 261
199 188 118 233 207 229 250 289 177 340 344 356 352 145 139 140 123 179 169 184 189 209 232 221 221 225 258 249 255 265 256 265 269 271 274 272 264 259 252 253 258 264 263 255 230 236 246 256 259
345 320 54 293 201 198 274 268 223 97 48 0 335 355 128 139 175 219 195 188 193 223 230 224 235 245 246 243 255 263 264 257 264 272 272 277 282 276 263 254 255 255 250 253 252 249 252 249 258
272 87 62 235 283 173 136 247 324 142 290 119 283 317 328 341 323 270 223 227 223 225 221 217 220 209 221 245 260 261 267 268 275 277 269 270 278 281 279 272 260 254 257 252 249 248 249 253 258
Wind_Speed_850mb
21 26 17 19 5 4 9 21 13 32 16 18 25 30 49 46 16 15 17 11 18 32 41 51 50 52 55 52 46 41 38 38 39 43 45 44 41 37 33 32 29 27 25 24 23 22 21 21 20
21 24 13 8 4 1 12 35 9 13 21 22 18 17 41 26 44 41 19 15 13 14 32 48 53 53 56 58 51 47 43 42 43 46 46 43 40 36 32 31 29 27 23 21 20 20 20 19 19
23 19 11 3 7 12 10 17 10 28 34 39 20 16 26 24 33 18 15 6 4 7 20 46 54 57 56 61 61 52 51 48 46 45 45 42 38 35 32 30 28 25 22 19 17 17 16 16 16
18 9 11 2 19 26 26 23 17 10 30 15 25 18 49 35 28 25 13 7 9 13 13 43 53 60 62 64 64 56 54 51 48 46 45 42 38 35 31 28 25 23 19 17 14 13 12 11 11
20 12 4 7 17 23 32 29 37 5 21 32 17 10 39 38 33 30 19 11 20 23 15 43 54 60 64 68 68 61 52 50 47 44 43 41 38 33 30 27 24 21 17 14 10 8 7 5 4
10 9 6 10 17 31 38 45 4 6 17 32 22 19 31 28 28 28 12 13 29 33 26 45 55 60 64 66 69 68 58 50 46 44 42 39 36 33 29 26 22 18 14 10 6 4 2 2 0
13 6 11 19 27 34 33 52 11 14 25 13 20 13 17 25 21 21 28 12 19 52 37 43 57 61 64 64 67 66 61 54 48 44 41 37 35 34 30 26 20 16 11 7 4 5 6 8 8
35 8 23 24 28 37 47 39 28 20 13 49 37 2 5 18 14 16 34 8 10 49 44 35 59 66 67 64 62 62 59 53 50 46 43 40 35 31 28 23 19 15 10 8 8 10 12 13 14
43 17 25 31 35 32 62 26 32 35 24 34 46 50 13 17 12 8 25 44 8 53 43 25 58 65 70 70 65 61 58 54 50 47 44 40 37 33 27 23 19 16 13 13 13 14 18 20 20
20 18 34 20 26 30 52 45 29 17 20 32 36 38 33 9 11 6 11 28 36 25 47 30 42 63 70 69 69 67 64 59 53 49 46 42 38 32 27 23 21 18 18 19 18 18 22 25 27
39 33 24 37 51 63 57 59 59 22 14 27 35 55 52 19 21 18 23 9 23 8 27 42 38 48 68 69 66 67 66 62 56 51 46 43 39 34 31 28 26 23 23 23 25 24 25 25 21
28 45 49 53 64 62 36 56 46 38 30 47 65 52 46 26 16 13 21 19 10 16 9 38 41 32 65 67 57 60 64 62 58 54 49 47 43 39 36 32 25 22 17 12 21 21 20 21 16
23 25 57 62 63 66 63 45 39 50 29 53 46 34 32 27 16 19 19 27 22 10 16 21 50 44 52 68 52 38 52 60 58 55 52 50 48 45 40 33 25 23 21 16 16 16 15 16 17
27 35 34 51 53 58 21 34 40 55 34 28 38 57 49 46 22 13 29 27 33 20 6 20 49 40 50 56 44 42 36 36 56 57 56 53 52 49 46 40 33 31 27 25 23 23 23 26 26
39 19 20 27 25 17 22 23 41 40 39 54 32 24 40 46 46 35 19 33 30 32 36 32 45 48 44 55 36 37 43 36 30 48 52 54 53 53 49 47 42 37 35 33 30 32 30 32 36
17 16 13 15 17 32 13 39 33 48 42 58 43 38 44 36 58 37 20 40 41 35 43 34 41 58 50 49 60 41 42 45 34 31 37 42 47 44 50 51 47 39 39 44 46 47 45 44 46
10 18 20 24 28 29 24 47 27 40 46 36 44 26 46 43 38 31 32 45 53 52 42 36 31 52 56 53 49 60 52 52 42 38 41 43 44 45 44 47 50 47 46 42 41 44 43 43 39
18 17 18 31 37 29 45 47 37 47 50 40 11 11 6 16 27 22 37 48 48 47 44 41 39 46 60 48 45 54 64 67 63 56 52 59 49 48 50 51 49 53 55 51 45 48 42 38 39
35 34 36 31 22 23 29 13 16 14 24 19 31 25 26 30 23 27 40 49 45 40 43 35 37 47 57 67 52 41 62 68 67 72 61 70 59 55 57 60 52 53 56 60 53 55 53 52 44
27 32 17 22 21 29 25 20 11 10 11 16 26 43 49 43 39 37 34 39 33 30 30 31 32 40 58 60 71 69 52 44 70 80 82 72 62 55 62 65 60 59 61 62 61 58 62 69 55
16 15 11 20 31 34 25 22 9 6 16 43 57 46 63 62 59 57 46 36 33 28 28 26 25 34 41 53 60 63 57 62 60 50 66 67 65 41 66 72 66 57 68 67 67 68 66 71 65
16 16 24 29 20 12 10 13 11 9 16 25 58 64 45 56 58 66 72 52 43 32 24 30 25 33 36 42 53 67 78 48 65 83 58 64 70 62 65 65 68 60 64 63 67 69 68 68 79
20 13 8 16 28 11 24 6 10 10 29 36 33 68 52 22 23 51 61 42 25 23 20 17 29 28 28 40 46 45 46 50 47 57 69 62 87 92 84 83 73 76 73 71 63 79 70 84 83
20 6 11 11 5 9 22 11 33 22 30 39 14 46 45 43 40 36 33 31 28 24 26 26 27 23 26 30 37 40 43 43 45 51 54 64 63 84 78 80 88 83 74 68 75 73 86 98 90
32 7 3 7 2 18 4 11 29 32 37 49 33 48 49 40 50 53 45 35 21 23 23 27 27 20 15 17 24 28 34 37 39 41 57 58 64 72 80 84 77 91 92 83 86 81 115 110 94
21 7 10 13 8 14 7 12 15 24 47 30 48 61 48 53 53 44 38 28 31 32 31 28 17 18 17 21 22 27 30 33 34 37 42 48 44 47 59 62 69 76 93 107 86 94 113 99 91
5 12 39 8 11 8 9 13 17 17 37 13 26 40 41 55 57 52 50 50 37 35 40 35 33 33 38 30 29 29 26 31 31 34 41 43 42 42 37 35 45 55 43 38 39 117 132 104 94
18 3 3 3 6 9 9 11 7 3 15 12 17 17 27 24 18 37 44 34 35 31 40 36 33 30 26 28 32 30 38 39 31 32 40 44 46 50 52 54 51 38 44 53 68 94 88 72 75
5 3 7 8 9 9 3 8 6 9 7 12 20 34 18 29 22 22 24 25 19 12 35 39 38 36 34 33 31 33 33 31 34 41 42 46 45 45 52 56 58 63 63 58 65 74 76 78 73
7 10 7 7 14 4 8 14 14 5 7 12 19 49 42 49 30 29 50 50 47 35 28 29 25 21 19 15 21 34 38 44 54 50 48 49 51 53 50 54 63 65 61 58 66 67 72 78 74
Wind_Direction_850mb
327 332 323 315 51 105 239 254 246 294 300 24 50 75 74 56 80 109 110 94 118 151 152 154 155 150 148 147 146 146 144 141 138 134 137 140 138 136 134 128 122 112 106 105 103 99 94 89 88
321 334 342 278 137 283 258 247 349 305 12 21 43 72 75 75 78 74 73 93 110 117 157 159 157 154 151 147 149 148 146 143 140 139 139 139 138 135 132 126 117 113 112 106 103 100 94 92 90
312 321 307 180 216 214 244 215 42 340 19 357 16 16 79 105 66 79 39 62 135 158 177 166 159 156 155 151 150 151 148 147 147 145 142 140 139 135 132 127 123 120 116 112 105 97 91 84 81
310 327 246 139 262 267 263 305 333 19 344 353 347 82 78 97 85 86 86 289 183 199 200 175 164 159 158 156 154 156 154 154 153 150 146 145 143 139 135 131 129 125 122 116 109 101 92 82 78
282 257 258 234 250 265 275 273 297 40 337 334 6 46 84 72 81 83 99 297 241 220 208 186 170 164 163 160 160 161 162 161 160 156 153 151 148 146 144 142 138 133 129 125 121 117 109 100 82
280 226 252 258 259 260 273 270 232 90 327 318 7 77 68 67 64 62 34 170 247 225 202 190 175 170 167 167 167 167 169 169 168 164 161 158 157 156 156 154 150 144 142 141 143 164 174 201 232
217 246 242 259 264 272 270 280 204 187 209 258 10 35 76 55 63 50 42 349 280 220 195 189 181 175 173 174 175 174 174 174 172 170 168 168 168 168 167 165 162 161 163 164 199 248 267 279 287
236 245 253 253 259 264 275 278 207 189 246 249 257 229 100 76 7 57 38 33 160 200 182 196 187 180 178 178 182 182 182 180 178 176 176 176 179 181 177 178 177 184 193 212 245 270 279 282 286
245 241 248 246 255 269 277 285 210 204 219 258 258 243 136 119 60 37 26 25 47 193 182 196 193 188 183 182 182 189 190 188 187 186 184 186 188 189 190 193 199 204 223 242 256 274 284 286 289
223 244 241 247 261 264 275 281 271 243 199 230 249 224 243 173 141 221 353 355 41 216 185 193 191 197 190 188 186 189 194 195 196 194 194 193 197 199 198 211 220 229 241 253 266 279 288 294 300
238 243 249 255 248 257 265 274 283 221 202 217 220 239 238 245 177 184 225 319 11 77 208 196 194 202 199 194 192 192 197 200 202 201 202 203 205 205 213 219 231 238 251 264 272 279 289 296 302
241 246 242 250 260 266 267 283 287 290 203 206 245 236 244 244 171 176 205 226 293 330 250 217 199 191 203 204 197 203 201 205 207 209 206 210 212 216 219 227 231 240 261 280 283 278 292 280 290
256 257 256 259 253 257 268 272 280 284 290 220 190 220 239 237 219 226 218 231 236 295 250 239 206 190 197 210 202 209 215 213 214 216 215 215 218 222 228 234 242 247 250 263 287 289 300 293 290
279 272 262 266 261 259 254 273 275 274 293 284 182 197 213 256 238 235 240 242 242 221 249 222 204 202 187 193 201 209 212 223 223 219 223 222 226 227 229 236 243 250 252 262 276 294 291 295 303
298 304 300 284 288 270 291 298 267 277 288 281 264 212 209 219 243 234 246 237 232 219 223 204 204 199 187 192 188 207 204 213 219 227 224 228 232 234 235 236 238 245 253 260 267 267 274 282 289
307 300 282 291 279 275 227 265 268 269 260 262 266 263 262 248 234 229 246 233 226 211 205 213 195 199 198 204 206 202 213 209 212 233 233 233 234 239 238 238 243 241 242 239 245 251 258 267 275
276 260 269 272 237 245 208 245 244 242 263 268 272 266 253 230 202 213 234 227 222 217 213 219 202 203 200 203 211 216 205 200 205 207 233 243 241 241 245 247 250 251 249 247 249 250 253 257 262
266 261 250 251 264 251 236 238 228 225 234 237 276 207 179 185 202 201 227 217 221 222 221 229 220 215 218 213 224 220 213 204 203 207 210 227 233 236 244 251 253 254 253 252 251 258 263 268 271
246 260 271 275 294 324 315 214 172 232 244 219 214 226 228 238 234 227 225 209 209 217 228 237 228 212 222 222 211 213 218 212 211 214 210 216 228 241 245 254 253 254 253 250 249 258 259 259 274
278 282 288 310 320 312 299 283 228 224 248 263 244 220 223 224 222 211 185 192 193 201 216 226 225 224 220 226 226 232 220 222 227 226 219 224 227 238 249 257 257 255 260 253 253 251 258 260 262
291 276 298 291 298 294 298 293 230 252 288 279 273 258 235 215 208 199 192 188 185 191 211 223 229 231 226 227 235 231 229 232 232 226 225 230 243 238 260 257 258 261 254 250 256 263 262 267 268
291 290 305 328 283 257 322 273 275 277 260 254 249 248 231 214 211 205 207 181 166 171 190 238 260 242 238 229 223 230 232 233 243 237 243 237 263 267 253 258 262 265 268 261 270 271 264 260 262
271 285 343 330 318 343 301 330 283 274 279 275 273 234 230 143 193 199 180 176 184 186 197 228 251 263 243 236 232 226 236 232 233 237 251 259 250 262 269 268 267 267 268 271 272 271 274 263 263
235 241 360 331 299 295 269 259 285 262 264 278 255 165 150 136 136 153 160 174 177 179 207 238 251 256 246 239 239 247 245 247 238 242 252 253 248 247 256 264 267 260 260 269 275 284 278 268 263
20 333 334 308 293 247 156 324 260 314 282 252 232 159 155 161 144 144 145 151 173 178 197 219 224 259 243 264 258 251 251 253 254 242 243 239 242 244 245 254 258 256 255 256 266 258 274 270 260
307 313 274 231 218 274 328 251 248 305 318 47 156 153 161 160 164 174 190 187 181 189 202 190 185 218 242 266 266 275 267 259 263 261 256 252 249 247 254 250 253 258 258 255 264 266 271 269 267
162 229 234 354 301 315 229 245 276 349 338 59 93 110 128 156 165 177 184 172 181 196 203 213 221 238 248 250 259 268 273 275 275 266 264 266 260 253 247 256 255 248 246 261 246 232 249 260 261
199 188 118 233 207 229 250 289 177 340 344 356 352 145 139 140 123 179 169 184 189 209 232 221 221 225 258 249 255 265 256 265 269 271 274 272 264 259 252 253 258 264 263 255 230 236 246 256 259
345 320 54 293 201 198 274 268 223 97 48 0 335 355 128 139 175 219 195 188 193 223 230 224 235 245 246 243 255 263 264 257 264 272 272 277 282 276 263 254 255 255 250 253 252 249 252 249 258
272 87 62 235 283 173 136 247 324 142 290 119 283 317 328 341 323 270 223 227 223 225 221 217 220 209 221 245 260 261 267 268 275 277 269 270 278 281 279 272 260 254 257 252 249 248 249 253 258